Location: Leiter
(44.7178°N, 106.2687°W)
Time: 02:10:31
(UTC+00:00)

CUTE 1.7 + AOD 2 - Pass Details

Date: 29 June 2022
Orbit: 589 x 608 km, 97.7° (Epoch: 17 August)

Event Time Altitude Azimuth Distance (km) Brightness Sun altitude
Rises 09:48:15 0° 31° (NNE) 2,853 ? -12.9°
Reaches altitude 10° 09:51:22 10° 57° (ENE) 1,939 ? -12.6°
Maximum altitude 09:53:40 14° 90° (E) 1,667 ? -12.3°
Drops below altitude 10° 09:55:57 10° 123° (ESE) 1,924 ? -12.1°
Sets 09:59:01 0° 149° (SSE) 2,815 ? -11.7°
